World > North America > United States > Michigan > Delton  

Delton, MI Hourly Weather Updates

Feedback E-mail the Weather

Quick Clicks

Delton, MI Weather Maps

°F °C°F °C
Delton Weather Map
UTC Time: 6/20/2024, 12:04
Your Time:

Delton, MI Regional Weather

Expires:202406201300;;348415
ASUS43 KDTX 201201
RWRMI 
MICHIGAN HOURLY REGIONAL WEATHER ROUNDUP
NATIONAL WEATHER SERVICE DETROIT/PONTIAC MI
800 AM EDT THU JUN 20 2024

NOTE: "FAIR" INDICATES FEW OR NO CLOUDS BELOW 12,000 FEET WITH NO
SIGNIFICANT WEATHER AND/OR OBSTRUCTION TO VISIBILITY.


MIZ043>046-050>051-056>058-064>065-071>073-077>080-201300-
SOUTHWEST LOWER MICHIGAN
  
CITY           SKY/WX    TMP DP  RH WIND       PRES   REMARKS
BATTLE CREEK   MOSUNNY   76  70  82 CALM      30.29R TC  24           
6HR MIN TEMP:  74; 6HR MAX TEMP:  79;                                

BENTON HARBOR  SUNNY     76  70  82 CALM      30.27R TC  24           
6HR MIN TEMP:  71; 6HR MAX TEMP:  76;                                

BIG RAPIDS     PTSUNNY   70  65  86 NE5       30.32R TC  21           
6HR MIN TEMP:  70; 6HR MAX TEMP:  74; 6HR PCP:  0.01;                

COLDWATER      SUNNY     77  73  88 CALM      30.29S TC  25           
6HR MIN TEMP:  72; 6HR MAX TEMP:  77;                                

FREMONT        MOSUNNY   73  69  89 CALM      30.28S TC  23           
6HR MIN TEMP:  70; 6HR MAX TEMP:  74;                                

HOLLAND        SUNNY     76  70  82 SE6       30.28S TC  24           
6HR MIN TEMP:  72; 6HR MAX TEMP:  76;                                

GRAND RAPIDS   MOSUNNY   74  70  87 E7        30.29R TC  23           
6HR MIN TEMP:  71; 6HR MAX TEMP:  76; 6HR PCP:  0.04;                

IONIA          SUNNY     72  72 100 NE5       30.29S TC  22           
6HR MIN TEMP:  71; 6HR MAX TEMP:  77;                                

KALAMAZOO      PTSUNNY   77  71  82 N5        30.29R TC  25           
6HR MIN TEMP:  71; 6HR MAX TEMP:  79;                                

LUDINGTON      CLOUDY    65  62  89 NE5       30.30S TC  19           
6HR MIN TEMP:  65; 6HR MAX TEMP:  69;                                

MARSHALL       MOSUNNY   74  70  87 CALM      30.28S TC  24           
6HR MIN TEMP:  71; 6HR MAX TEMP:  74;                                

MOUNT PLEASANT SUNNY     67  62  82 NE8       30.31R TC  20           
6HR MIN TEMP:  65; 6HR MAX TEMP:  75;                                

MUSKEGON       PTSUNNY   74  69  85 CALM      30.28R TC  23           
6HR MIN TEMP:  70; 6HR MAX TEMP:  74;                                

$$

SKY/WX - Weather  TMP - Temperature  DP - Dew Point  RH - Humidity
WIND - Wind Direction/Speed PRES - Barometric Pressure VSB - Visibility
WCI - Wind Chill Index E13G22 Wind - East Wind 13 mph/Gusts of 22 mph

Trending Headlines

Trending Entertainment Headlines

Delton Radar Loop

Use the map search tool if you want to place a location marker on the radar map...

Delton Quick Facts

National Two Day Weather Forecast


E-mail the Delton Weather Forecast

Voice your opinion or tell us about page issues...